FW8178 Weather Reports


time (UTC)temp
C
wind
direction
speed
KPH
gust
KPH
rain 1hr
cm
rain 24hr
cm
rain mn
cm
humidity
%
barometer
mb
20260502224553 17 75 1.6 4.8 0.00 0.00 0.00 91 1014.8
20260502223051 16 75 1.6 6.4 0.00 0.00 0.00 90 1014.8
20260502221551 16 74 3.2 6.4 0.00 0.00 0.00 90 1014.8
20260502220049 16 113 1.6 4.8 0.00 0.00 0.00 90 1014.9
20260502214556 17 113 3.2 4.8 0.00 0.00 0.00 90 1015.1
20260502213048 17 113 0.0 1.6 0.00 0.00 0.00 90 1015.4
20260502211550 17 113 1.6 11.3 0.00 0.00 0.00 89 1015.3
20260502210045 17 111 8.0 11.3 0.00 0.00 0.00 89 1015.2
20260502204549 17 96 4.8 9.7 0.00 0.00 0.00 89 1015.2
20260502203106 17 103 8.0 12.9 0.00 0.00 0.00 89 1015.2
20260502201541 17 96 6.4 14.5 0.00 0.00 0.00 88 1014.8
20260502200041 17 134 9.7 16.1 0.00 0.00 0.00 88 1014.8
20260502194540 17 100 11.3 17.7 0.00 0.00 0.00 88 1014.5
20260502193037 17 113 8.0 17.7 0.00 0.00 0.00 87 1014.4
20260502191537 18 113 6.4 14.5 0.00 0.00 0.00 85 1014.5
20260502190036 18 111 8.0 17.7 0.00 0.00 0.00 85 1014.4
20260502184535 18 101 9.7 20.9 0.00 0.00 0.00 85 1014.4
20260502183033 18 103 14.5 20.9 0.00 0.00 0.00 84 1014.4
20260502181546 18 92 14.5 22.5 0.00 0.00 0.00 84 1014.6
20260502170103 20 113 12.9 17.7 0.00 0.00 0.00 80 1014.9
20260502163055 20 134 14.5 20.9 0.00 0.00 0.00 78 1015.1
20260502163052 20 110 14.5 20.9 0.00 0.00 0.00 78 1015.1
20260502161550 20 94 11.3 22.5 0.00 0.00 0.00 79 1015.3
20260502151559 21 63 12.9 20.9 0.00 0.00 0.00 75 1015.8
20260502123051 21 88 14.5 22.5 0.00 0.00 0.00 74 1017.1
20260502121521 21 87 14.5 25.7 0.00 0.00 0.00 73 1016.9
20260502114512 21 98 12.9 19.3 0.00 0.00 0.00 74 1017.8
20260502113009 21 96 9.7 22.5 0.00 0.00 0.00 75 1017.9
20260502111508 20 101 14.5 24.1 0.00 0.00 0.00 75 1017.7
20260502110006 21 88 16.1 27.4 0.00 0.00 0.00 77 1017.9
20260502104559 20 82 11.3 24.1 0.00 0.00 0.00 78 1018.1
20260502103101 20 78 14.5 25.7 0.00 0.00 0.00 77 1018.1
20260502101557 20 91 16.1 24.1 0.00 0.00 0.00 76 1018.2
20260502070050 18 40 1.6 4.8 0.00 0.00 0.00 87 1018.6
20260502064557 17 355 1.6 4.8 0.00 0.00 0.00 88 1018.8
20260502063049 17 355 1.6 4.8 0.00 0.00 0.00 88 1018.7
20260502061514 17 194 0.0 1.6 0.00 0.00 0.00 89 1018.7
20260502060112 17 194 0.0 1.6 0.00 0.00 0.00 90 1018.5
20260502054508 17 194 0.0 3.2 0.00 0.00 0.00 90 1018.4
20260502053007 17 194 0.0 3.2 0.00 0.00 0.00 90 1018.5
20260502051502 17 194 0.0 3.2 0.00 0.00 0.00 89 1018.4
20260502050002 17 194 1.6 4.8 0.00 0.00 0.00 89 1018.4
20260502044559 17 194 1.6 4.8 0.00 0.00 0.00 88 1018.2
20260502043100 17 308 1.6 4.8 0.00 0.00 0.00 88 1018.3
20260502041556 17 308 0.0 1.6 0.00 0.00 0.00 89 1018.0
20260502040106 17 308 1.6 3.2 0.00 0.00 0.00 88 1018.5
20260502034556 17 307 1.6 6.4 0.00 0.00 0.00 89 1018.4
20260502033050 17 248 1.6 3.2 0.00 0.00 0.00 89 1018.4
20260502031550 17 248 1.6 3.2 0.00 0.00 0.00 89 1018.4
20260502030046 17 197 0.0 1.6 0.00 0.00 0.00 90 1018.4
20260502024546 17 197 0.0 1.6 0.00 0.00 0.00 90 1018.5
20260502023050 17 197 1.6 3.2 0.00 0.00 0.00 90 1018.4
20260502021544 16 197 3.2 4.8 0.00 0.00 0.00 90 1018.4
20260502020053 17 197 1.6 3.2 0.00 0.00 0.00 91 1018.6
20260502014548 16 197 1.6 4.8 0.00 0.00 0.00 91 1018.7
20260502013033 16 196 0.0 4.8 0.00 0.00 0.00 90 1018.8
20260502011531 17 196 1.6 4.8 0.00 0.00 0.00 89 1018.9
20260502010032 17 84 0.0 3.2 0.00 0.00 0.00 89 1019.0
20260502004532 17 84 0.0 0.0 0.00 0.00 0.00 88 1019.0
20260502003025 17 84 0.0 0.0 0.00 0.00 0.00 88 1019.3
20260502001536 17 84 0.0 0.0 0.00 0.00 0.00 87 1019.6
20260502000024 17 84 0.0 0.0 0.00 0.03 0.00 88 1019.8
20260501234523 17 84 0.0 0.0 0.00 0.03 0.00 88 1020.0
20260501233054 17 84 0.0 1.6 0.00 0.03 0.00 89 1020.1
20260501231553 17 84 1.6 6.4 0.00 0.03 0.00 89 1020.1
20260501230022 17 175 0.0 4.8 0.00 0.03 0.00 90 1020.1